K5GTX Weather Reports


time (UTC)temp
C
wind
direction
speed
KPH
gust
KPH
rain 1hr
cm
rain 24hr
cm
rain mn
cm
humidity
%
barometer
mb
20260509190635 28 90 0.0 4.8 0.00 0.00 0.00 99 1016.1
20260509190132 28 36 4.8 11.3 0.00 0.00 0.00 99 1016.1
20260509185630 28 99 3.2 6.4 0.00 0.00 0.00 99 1016.1
20260509185126 28 111 0.0 6.4 0.00 0.00 0.00 99 1016.2
20260509184624 28 114 0.0 6.4 0.00 0.00 0.00 99 1016.1
20260509184120 27 0 3.2 8.0 0.00 0.00 0.00 99 1016.3
20260509183616 27 66 1.6 8.0 0.00 0.00 0.00 99 1016.3
20260509183112 27 71 8.0 8.0 0.00 0.00 0.00 99 1016.4
20260509182608 27 7 0.0 8.0 0.00 0.00 0.00 99 1016.4
20260509182105 27 23 1.6 8.0 0.00 0.00 0.00 99 1016.4
20260509181603 27 13 8.0 9.7 0.00 0.00 0.00 99 1016.4
20260509181100 27 213 3.2 4.8 0.00 0.00 0.00 99 1016.7
20260509180556 27 72 4.8 11.3 0.00 0.00 0.00 99 1016.7
20260509180054 27 50 6.4 6.4 0.00 0.00 0.00 99 1016.6
20260509175549 27 60 1.6 8.0 0.00 0.00 0.00 99 1016.9
20260509175046 26 349 4.8 9.7 0.00 0.00 0.00 99 1017.0
20260509174542 27 106 1.6 4.8 0.00 0.00 0.00 99 1016.9
20260509174038 27 79 4.8 8.0 0.00 0.00 0.00 99 1017.0
20260509173532 27 132 0.0 8.0 0.00 0.00 0.00 99 1016.9
20260509173029 26 66 1.6 4.8 0.00 0.00 0.00 99 1017.2
20260509172526 26 126 1.6 9.7 0.00 0.00 0.00 99 1017.2
20260509172021 26 90 0.0 4.8 0.00 0.00 0.00 99 1017.4
20260509171518 26 30 6.4 11.3 0.00 0.00 0.00 99 1017.3
20260509171015 25 53 4.8 11.3 0.00 0.00 0.00 99 1017.4
20260509170510 26 27 6.4 6.4 0.00 0.00 0.00 99 1017.3
20260509170006 26 180 1.6 11.3 0.00 0.00 0.00 99 1017.2
20260509165505 25 345 1.6 9.7 0.00 0.00 0.00 99 1017.1
20260509165001 25 345 1.6 20.9 0.00 0.00 0.00 99 1017.3
20260509164457 25 356 3.2 11.3 0.00 0.00 0.00 99 1017.4
20260509163953 25 67 8.0 12.9 0.00 0.00 0.00 99 1017.2
20260509163451 25 294 4.8 11.3 0.00 0.00 0.00 99 1017.4
20260509162949 25 348 6.4 11.3 0.00 0.00 0.00 99 1017.2
20260509162449 25 72 4.8 8.0 0.00 0.00 0.00 99 1017.1
20260509161944 25 46 8.0 11.3 0.00 0.00 0.00 99 1017.4
20260509161441 25 341 4.8 14.5 0.00 0.00 0.00 99 1017.2
20260509160936 25 355 4.8 8.0 0.00 0.00 0.00 99 1017.3
20260509160432 24 39 6.4 11.3 0.00 0.00 0.00 99 1017.4
20260509155927 25 86 0.0 16.1 0.00 0.00 0.00 99 1017.1
20260509155424 24 90 1.6 8.0 0.00 0.00 0.00 99 1017.2
20260509154920 23 32 8.0 11.3 0.00 0.00 0.00 99 1017.3
20260509154417 24 26 3.2 9.7 0.00 0.00 0.00 99 1017.2
20260509153914 23 354 4.8 8.0 0.00 0.00 0.00 99 1017.4
20260509153411 23 14 1.6 11.3 0.00 0.00 0.00 99 1017.3
20260509152908 23 15 6.4 8.0 0.00 0.00 0.00 99 1017.2
20260509152404 23 298 4.8 8.0 0.00 0.00 0.00 99 1017.3
20260509151901 23 283 4.8 9.7 0.00 0.00 0.00 99 1017.3
20260509151357 23 21 3.2 8.0 0.00 0.00 0.00 99 1017.2
20260509150855 22 355 4.8 8.0 0.00 0.00 0.00 99 1017.4
20260509150353 22 60 0.0 8.0 0.00 0.00 0.00 99 1017.3
20260509145850 22 272 8.0 8.0 0.00 0.00 0.00 99 1017.5
20260509145345 22 9 3.2 8.0 0.00 0.00 0.00 99 1017.3
20260509144841 22 318 4.8 8.0 0.00 0.00 0.00 99 1017.6
20260509144338 22 356 3.2 9.7 0.00 0.00 0.00 99 1017.5
20260509143835 22 321 4.8 9.7 0.00 0.00 0.00 99 1017.5
20260509143333 22 40 4.8 8.0 0.00 0.00 0.00 99 1017.4
20260509142829 22 0 3.2 12.9 0.00 0.00 0.00 99 1017.4
20260509142325 22 339 3.2 8.0 0.00 0.00 0.00 99 1017.3
20260509141821 22 306 0.0 11.3 0.00 0.00 0.00 99 1017.2
20260509141318 22 12 6.4 12.9 0.00 0.00 0.00 99 1017.0
20260509140814 22 266 8.0 8.0 0.00 0.00 0.00 99 1017.2
20260509140312 22 308 8.0 9.7 0.00 0.00 0.00 99 1017.2
20260509135810 22 358 0.0 9.7 0.00 0.00 0.00 99 1017.2
20260509135307 22 35 6.4 11.3 0.00 0.00 0.00 99 1017.1
20260509134804 22 354 0.0 4.8 0.00 0.00 0.00 99 1016.9
20260509134301 21 339 4.8 8.0 0.00 0.00 0.00 99 1017.0
20260509133758 21 25 8.0 9.7 0.00 0.00 0.00 99 1017.1
20260509133254 21 297 1.6 6.4 0.00 0.00 0.00 99 1017.0
20260509132754 21 349 0.0 6.4 0.00 0.00 0.00 99 1016.6
20260509132252 21 98 0.0 4.8 0.00 0.00 0.00 99 1016.9
20260509131748 21 320 4.8 8.0 0.00 0.00 0.00 99 1017.1
20260509131245 21 292 4.8 6.4 0.00 0.00 0.00 99 1016.8
20260509130741 21 14 0.0 3.2 0.00 0.00 0.00 99 1016.8
20260509130237 21 270 0.0 0.0 0.00 0.00 0.00 99 1017.0
20260509125733 21 90 0.0 3.2 0.00 0.00 0.00 99 1016.6
20260509125231 21 286 0.0 1.6 0.00 0.00 0.00 99 1016.7
20260509124727 21 81 0.0 0.0 0.00 0.00 0.00 99 1017.0
20260509124223 20 82 0.0 3.2 0.00 0.00 0.00 99 1016.6
20260509123722 20 240 0.0 1.6 0.00 0.00 0.00 99 1016.7
20260509123219 20 90 0.0 0.0 0.00 0.00 0.00 99 1017.0
20260509122714 20 8 0.0 1.6 0.00 0.00 0.00 99 1016.9
20260509122211 20 90 0.0 0.0 0.00 0.00 0.00 99 1016.7
20260509121708 20 90 0.0 0.0 0.00 0.00 0.00 99 1016.8
20260509121206 20 90 0.0 0.0 0.00 0.00 0.00 99 1016.8
20260509120704 20 90 0.0 0.0 0.00 0.00 0.00 99 1016.8
20260509120201 20 90 0.0 0.0 0.00 0.00 0.00 99 1016.7
20260509115659 20 90 0.0 0.0 0.00 0.00 0.00 99 1016.5
20260509115156 20 90 0.0 0.0 0.00 0.00 0.00 99 1016.6
20260509114654 20 99 0.0 0.0 0.00 0.00 0.00 99 1016.5
20260509114153 20 90 0.0 0.0 0.00 0.00 0.00 99 1016.5
20260509113651 20 90 0.0 0.0 0.00 0.00 0.00 99 1016.3
20260509113147 20 99 0.0 0.0 0.00 0.00 0.00 99 1016.1
20260509112644 20 90 0.0 3.2 0.00 0.00 0.00 99 1015.9
20260509112141 21 120 3.2 3.2 0.00 0.00 0.00 99 1015.9
20260509111639 21 111 1.6 3.2 0.00 0.00 0.00 99 1015.8
20260509111135 20 90 0.0 1.6 0.00 0.00 0.00 99 1015.8
20260509110632 20 82 1.6 1.6 0.00 0.00 0.00 99 1015.8
20260509110129 20 81 0.0 1.6 0.00 0.00 0.00 99 1015.8
20260509105627 20 90 0.0 1.6 0.00 0.00 0.00 99 1015.6
20260509105125 20 74 0.0 0.0 0.00 0.00 0.00 99 1015.8
20260509104622 21 74 0.0 3.2 0.00 0.00 0.00 99 1015.3
20260509104118 21 90 0.0 1.6 0.00 0.00 0.00 99 1015.5
20260509103616 20 99 0.0 3.2 0.00 0.00 0.00 99 1015.4
20260509103114 20 139 3.2 3.2 0.00 0.00 0.00 99 1015.4
20260509102611 21 90 0.0 3.2 0.00 0.00 0.00 99 1015.4
20260509102108 21 106 1.6 3.2 0.00 0.00 0.00 99 1015.4
20260509101604 21 114 0.0 1.6 0.00 0.00 0.00 99 1015.6
20260509101101 21 111 1.6 1.6 0.00 0.00 0.00 99 1015.6
20260509100558 21 106 0.0 3.2 0.00 0.00 0.00 99 1015.4
20260509100056 21 99 0.0 1.6 0.00 0.00 0.00 99 1015.4
20260509095552 21 84 3.2 3.2 0.00 0.00 0.00 99 1015.6
20260509095050 21 35 0.0 1.6 0.00 0.00 0.00 99 1015.4
20260509094545 21 97 1.6 3.2 0.00 0.00 0.00 99 1015.4
20260509094043 21 74 1.6 1.6 0.00 0.00 0.00 99 1015.5
20260509093541 21 90 1.6 4.8 0.00 0.00 0.00 99 1015.4
20260509093038 21 21 3.2 4.8 0.00 0.00 0.00 99 1015.3
20260509092536 21 48 3.2 6.4 0.00 0.00 0.00 99 1015.2
20260509092035 21 0 3.2 3.2 0.00 0.00 0.00 99 1015.2
20260509091532 20 303 3.2 3.2 0.00 0.00 0.00 99 1015.3
20260509091028 20 81 0.0 3.2 0.00 0.00 0.00 99 1014.4
20260509090526 20 54 0.0 4.8 0.00 0.00 0.00 99 1014.0
20260509090023 20 120 1.6 4.8 0.00 0.00 0.00 99 1013.8
20260509085520 20 117 1.6 4.8 0.00 0.00 0.00 99 1014.0
20260509085016 20 99 0.0 3.2 0.00 0.00 0.00 99 1014.0
20260509084513 20 114 1.6 3.2 0.00 0.00 0.00 99 1014.1
20260509084010 20 111 1.6 8.0 0.00 0.00 0.00 99 1014.3
20260509083508 20 127 3.2 4.8 0.00 0.00 0.00 99 1014.2
20260509083004 21 135 0.0 4.8 0.00 0.00 0.00 99 1014.4
20260509082502 21 135 0.0 4.8 0.00 0.00 0.00 99 1014.6
20260509081959 21 151 0.0 4.8 0.00 0.00 0.00 99 1014.8
20260509081456 21 90 0.0 3.2 0.00 0.00 0.00 99 1014.9
20260509080952 21 196 3.2 4.8 0.00 0.00 0.00 99 1015.2
20260509080451 21 105 0.0 3.2 0.00 0.00 0.00 99 1015.4
20260509075949 21 82 1.6 3.2 0.00 0.00 0.00 99 1015.7
20260509075445 21 98 0.0 1.6 0.00 0.00 0.00 99 1015.9
20260509074943 21 82 0.0 3.2 0.00 0.00 0.00 99 1016.0
20260509074441 21 96 3.2 3.2 0.00 0.00 0.00 99 1016.4
20260509073937 21 109 0.0 3.2 0.00 0.00 0.00 99 1016.4
20260509073433 21 99 0.0 3.2 0.00 0.00 0.00 99 1016.7
20260509072930 21 90 0.0 4.8 0.00 0.00 0.00 99 1016.7
20260509072427 21 105 0.0 3.2 0.00 0.00 0.00 99 1016.7
20260509071923 21 106 0.0 1.6 0.00 0.00 0.00 99 1016.8
20260509071420 21 84 1.6 3.2 0.00 0.00 0.00 99 1017.1
20260509070918 21 233 3.2 3.2 0.00 0.00 0.00 99 1017.0
20260509070415 21 240 0.0 4.8 0.00 0.00 0.00 99 1017.1
20260509065909 21 225 3.2 4.8 0.00 0.00 0.00 99 1017.1
20260509065406 21 288 3.2 8.0 0.00 0.00 0.00 99 1017.0
20260509064902 21 270 1.6 4.8 0.00 0.00 0.00 99 1016.9
20260509064400 21 280 0.0 6.4 0.00 0.00 0.00 99 1016.7
20260509063858 21 270 0.0 4.8 0.00 0.00 0.00 99 1016.6
20260509063353 21 243 0.0 4.8 0.00 0.00 0.00 99 1016.4
20260509062851 21 247 0.0 3.2 0.00 0.00 0.00 99 1016.4
20260509062348 21 235 0.0 8.0 0.00 0.00 0.00 99 1016.4
20260509061845 21 190 3.2 4.8 0.00 0.00 0.00 99 1016.5
20260509061343 20 60 0.0 3.2 0.00 0.00 0.00 99 1016.4
20260509060839 20 192 0.0 1.6 0.00 0.00 0.00 99 1016.5
20260509060337 20 59 3.2 3.2 0.00 0.00 0.00 99 1016.6
20260509055832 20 81 0.0 4.8 0.00 0.00 0.00 99 1016.5
20260509055327 21 90 0.0 0.0 0.00 0.00 0.00 99 1016.7
20260509054824 21 187 0.0 0.0 0.00 0.00 0.00 99 1017.3
20260509054321 21 187 0.0 0.0 0.00 0.00 0.00 99 1017.1
20260509053820 21 195 0.0 0.0 0.00 0.00 0.00 99 1017.1
20260509053316 21 306 0.0 1.6 0.00 0.00 0.00 99 1017.4
20260509052815 21 342 0.0 0.0 0.00 0.00 0.00 99 1017.4
20260509052312 21 240 0.0 3.2 0.00 0.00 0.00 99 1017.1
20260509051810 21 255 0.0 4.8 0.00 0.00 0.00 99 1017.6
20260509051307 21 255 1.6 3.2 0.00 0.00 0.00 99 1018.0
20260509050804 21 14 0.0 8.0 0.00 0.00 0.00 99 1018.0
20260509050300 21 49 4.8 4.8 0.00 0.00 0.00 99 1017.8
20260509045757 21 0 3.2 3.2 0.00 1.52 1.52 99 1017.4
20260509045254 21 29 0.0 1.6 0.00 1.52 1.52 99 1016.6
20260509044752 21 188 0.0 0.0 0.00 1.52 1.52 99 1016.5
20260509044249 21 195 1.6 4.8 0.00 1.52 1.52 99 1016.1
20260509043745 21 188 0.0 4.8 0.00 1.52 1.52 99 1016.4
20260509043241 21 77 0.0 1.6 0.00 1.52 1.52 99 1016.2
20260509042738 21 186 1.6 4.8 0.00 1.52 1.52 99 1016.1
20260509042234 21 139 0.0 6.4 0.00 1.52 1.52 99 1016.0
20260509041731 21 206 0.0 4.8 0.00 1.52 1.52 99 1015.8
20260509041228 21 157 0.0 6.4 0.00 1.52 1.52 99 1016.5
20260509040727 21 210 6.4 6.4 0.00 1.52 1.52 99 1016.4
20260509040223 21 114 0.0 6.4 0.00 1.52 1.52 99 1016.0
20260509035719 21 99 0.0 4.8 0.00 1.52 1.52 99 1016.4
20260509035216 22 105 0.0 1.6 0.00 1.52 1.52 99 1016.5
20260509034714 22 0 0.0 0.0 0.00 1.52 1.52 99 1017.1
20260509034211 22 0 0.0 0.0 0.00 1.52 1.52 99 1017.5
20260509033708 22 15 0.0 3.2 0.00 1.52 1.52 99 1017.2
20260509033205 22 15 0.0 3.2 0.00 1.52 1.52 99 1017.4
20260509032702 22 246 0.0 0.0 0.00 1.52 1.52 99 1017.1
20260509032159 22 246 0.0 0.0 0.00 1.52 1.52 99 1016.8
20260509031656 22 251 0.0 1.6 0.00 1.52 1.52 99 1016.7
20260509031154 22 90 0.0 0.0 0.00 1.52 1.52 99 1016.7
20260509030652 22 106 0.0 3.2 0.00 1.52 1.52 99 1016.7
20260509030149 22 90 0.0 0.0 0.00 1.52 1.52 99 1017.0
20260509025645 21 90 0.0 3.2 0.00 1.52 1.52 99 1016.7
20260509025141 22 69 0.0 3.2 0.00 1.52 1.52 99 1016.7
20260509024637 21 74 1.6 1.6 0.00 1.52 1.52 99 1016.5
20260509024133 21 74 0.0 1.6 0.00 1.52 1.52 99 1016.1
20260509023631 21 90 0.0 0.0 0.00 1.52 1.52 99 1015.7
20260509023127 21 98 0.0 3.2 0.00 1.52 1.52 99 1015.7
20260509022623 21 190 0.0 4.8 0.00 1.52 1.52 99 1015.4
20260509022122 21 140 0.0 4.8 0.00 1.52 1.52 99 1015.3
20260509021618 21 99 0.0 3.2 0.00 1.52 1.52 99 1015.5
20260509021115 22 114 0.0 1.6 0.00 1.52 1.52 99 1015.4
20260509020614 21 98 0.0 3.2 0.00 1.52 1.52 99 1015.4
20260509020110 21 97 0.0 4.8 0.00 1.52 1.52 99 1015.4
20260509015610 21 105 0.0 3.2 0.00 1.52 1.52 99 1015.3
20260509015106 21 131 0.0 6.4 0.00 1.52 1.52 99 1015.2
20260509014602 21 81 0.0 3.2 0.00 1.52 1.52 99 1015.4
20260509014059 22 121 0.0 0.0 0.00 1.52 1.52 99 1015.0
20260509013556 22 139 0.0 3.2 0.00 1.52 1.52 99 1015.0
20260509013052 22 74 0.0 0.0 0.00 1.52 1.52 99 1015.0
20260509012549 22 114 0.0 0.0 0.00 1.52 1.52 99 1015.3
20260509012045 22 98 1.6 3.2 0.00 1.52 1.52 99 1015.3
20260509011543 22 106 0.0 3.2 0.00 1.52 1.52 99 1015.0
20260509011040 22 114 0.0 3.2 0.00 1.52 1.52 99 1014.9
20260509010538 22 188 0.0 1.6 0.00 1.52 1.52 99 1015.2
20260509010035 22 156 0.0 3.2 0.00 1.52 1.52 99 1015.0
20260509005532 22 98 0.0 4.8 0.00 1.52 1.52 99 1015.2
20260509005027 22 174 0.0 0.0 0.00 1.52 1.52 99 1014.9
20260509004524 22 111 0.0 3.2 0.00 1.52 1.52 99 1014.7
20260509004021 22 195 0.0 6.4 0.00 1.52 1.52 99 1014.5
20260509003519 23 109 0.0 8.0 0.00 1.52 1.52 99 1014.5
20260509003016 23 285 0.0 6.4 0.00 1.52 1.52 99 1014.4
20260509002514 23 196 3.2 6.4 0.00 1.52 1.52 99 1014.4
20260509002011 23 187 0.0 4.8 0.00 1.52 1.52 99 1014.6
20260509001508 23 144 0.0 6.4 0.00 1.52 1.52 99 1014.5
20260509001004 23 225 0.0 4.8 0.00 1.52 1.52 99 1014.6
20260509000503 23 111 0.0 8.0 0.00 1.52 1.52 99 1014.2
20260508235957 23 145 1.6 3.2 0.00 1.52 1.52 99 1014.7
20260508235456 23 225 3.2 3.2 0.00 1.52 1.52 99 1014.8
20260508234952 23 112 0.0 4.8 0.00 1.52 1.52 99 1015.0
20260508234449 24 117 0.0 4.8 0.00 1.52 1.52 99 1014.9
20260508233947 24 146 3.2 6.4 0.00 1.52 1.52 99 1015.0
20260508233446 25 142 3.2 12.9 0.00 1.52 1.52 99 1015.0
20260508232942 25 213 0.0 11.3 0.00 1.52 1.52 99 1015.0
20260508232439 25 144 0.0 4.8 0.00 1.52 1.52 99 1015.0
20260508231937 24 105 1.6 6.4 0.00 1.52 1.52 99 1015.2
20260508231434 24 195 3.2 6.4 0.00 1.52 1.52 99 1015.2
20260508230931 24 225 0.0 6.4 0.00 1.52 1.52 99 1015.2
20260508230427 24 203 4.8 11.3 0.00 1.52 1.52 99 1015.2
20260508225924 24 184 3.2 9.7 0.00 1.52 1.52 99 1015.3
20260508225421 25 195 0.0 4.8 0.00 1.52 1.52 99 1015.3
20260508224919 25 223 6.4 6.4 0.00 1.52 1.52 99 1015.0
20260508224416 25 140 0.0 4.8 0.00 1.52 1.52 99 1015.2
20260508223913 25 100 0.0 6.4 0.00 1.52 1.52 99 1015.4
20260508223411 25 201 3.2 6.4 0.00 1.52 1.52 99 1015.2
20260508222908 25 157 3.2 4.8 0.00 1.52 1.52 99 1015.3
20260508222405 26 203 1.6 4.8 0.00 1.52 1.52 99 1015.3
20260508221902 27 165 3.2 4.8 0.00 1.52 1.52 99 1015.2
20260508221357 27 0 0.0 6.4 0.00 1.52 1.52 99 1014.8
20260508220854 26 135 3.2 6.4 0.00 1.52 1.52 99 1014.8
20260508220350 26 112 0.0 3.2 0.00 1.52 1.52 99 1014.9
20260508215847 26 254 1.6 4.8 0.00 1.52 1.52 99 1015.2
20260508215344 26 100 0.0 6.4 0.00 1.52 1.52 99 1014.9
20260508214841 26 140 3.2 4.8 0.00 1.52 1.52 99 1015.0
20260508214338 26 109 0.0 8.0 0.00 1.52 1.52 99 1014.9
20260508213834 26 105 0.0 4.8 0.00 1.52 1.52 99 1015.0
20260508213332 26 245 0.0 6.4 0.00 1.52 1.52 99 1015.0
20260508212827 25 202 0.0 6.4 0.00 1.52 1.52 99 1015.2
20260508212324 26 132 3.2 6.4 0.00 1.52 1.52 99 1015.2
20260508211820 26 99 3.2 4.8 0.00 1.52 1.52 99 1015.2
20260508211315 26 283 0.0 6.4 0.00 1.52 1.52 99 1015.8
20260508210813 26 147 0.0 4.8 0.00 1.52 1.52 99 1015.9
20260508210310 26 79 0.0 8.0 0.00 1.52 1.52 99 1016.2
20260508205807 25 188 3.2 8.0 0.00 1.52 1.52 99 1016.6
20260508205306 24 135 3.2 4.8 0.00 1.52 1.52 99 1016.2
20260508204759 24 145 1.6 9.7 0.00 1.52 1.52 99 1016.4
20260508204256 24 270 1.6 11.3 0.00 1.52 1.52 99 1016.9
20260508203752 24 231 0.0 16.1 0.00 1.52 1.52 99 1016.8
20260508203249 25 240 1.6 6.4 0.00 1.52 1.52 99 1017.0
20260508202744 25 226 8.0 8.0 0.00 1.52 1.52 99 1016.8
20260508202242 25 143 4.8 14.5 0.00 1.52 1.52 99 1017.1
20260508201739 25 184 0.0 9.7 0.00 1.52 1.52 99 1017.2
20260508201235 25 280 8.0 17.7 0.00 1.52 1.52 99 1016.9
20260508200732 25 241 0.0 8.0 0.00 1.52 1.52 99 1017.0
20260508200228 26 159 3.2 9.7 0.00 1.52 1.52 99 1017.0
20260508195725 26 203 1.6 8.0 0.00 1.52 1.52 99 1017.3
20260508195221 26 173 0.0 8.0 0.00 1.52 1.52 99 1017.2
20260508194718 26 98 1.6 8.0 0.00 1.52 1.52 99 1017.0
20260508194215 26 105 0.0 4.8 0.00 1.52 1.52 99 1017.1
20260508193712 27 106 0.0 3.2 0.00 1.52 1.52 99 1017.0
20260508193208 26 265 3.2 6.4 0.00 1.52 1.52 99 1017.5
20260508192705 27 132 0.0 3.2 0.00 1.52 1.52 99 1017.3
20260508192202 26 195 0.0 4.8 0.00 1.52 1.52 99 1017.4
20260508191700 26 109 0.0 4.8 0.00 1.52 1.52 99 1017.6
20260508191156 26 215 0.0 3.2 0.00 1.52 1.52 99 1017.3